Year,Month,Day,Hour,Minute,Value (Times are PST for temperature in C)
2018,10,23,00,00,7.00
2018,10,23,00,01,6.90
2018,10,23,00,02,6.90
2018,10,23,00,03,6.90
2018,10,23,00,04,6.90
2018,10,23,00,05,6.80
2018,10,23,00,06,6.80
2018,10,23,00,07,6.80
2018,10,23,00,08,6.80
2018,10,23,00,09,6.70
2018,10,23,00,10,6.70
2018,10,23,00,11,6.70
2018,10,23,00,12,6.70
2018,10,23,00,13,6.60
2018,10,23,00,14,6.60
2018,10,23,00,15,6.60
2018,10,23,00,16,6.60
2018,10,23,00,17,6.50
2018,10,23,00,18,6.50
2018,10,23,00,19,6.50
2018,10,23,00,20,6.40
2018,10,23,00,21,6.40
2018,10,23,00,22,6.40
2018,10,23,00,23,6.30
2018,10,23,00,24,6.30
2018,10,23,00,25,6.30
2018,10,23,00,26,6.30
2018,10,23,00,27,6.20
2018,10,23,00,28,6.20
2018,10,23,00,29,6.20
2018,10,23,00,30,6.20
2018,10,23,00,31,6.20
2018,10,23,00,32,6.10
2018,10,23,00,33,6.10
2018,10,23,00,34,6.10
2018,10,23,00,35,6.10
2018,10,23,00,36,6.10
2018,10,23,00,37,6.00
2018,10,23,00,38,6.00
2018,10,23,00,39,6.00
2018,10,23,00,40,5.90
2018,10,23,00,41,5.90
2018,10,23,00,42,5.90
2018,10,23,00,43,5.90
2018,10,23,00,44,5.90
2018,10,23,00,45,5.90
2018,10,23,00,46,5.80
2018,10,23,00,47,5.80
2018,10,23,00,48,5.80
2018,10,23,00,49,5.80
2018,10,23,00,50,5.80
2018,10,23,00,51,5.80
2018,10,23,00,52,5.80
2018,10,23,00,53,5.80
2018,10,23,00,54,5.80
2018,10,23,00,55,5.80
2018,10,23,00,56,5.80
2018,10,23,00,57,5.80
2018,10,23,00,58,5.80
2018,10,23,00,59,5.80
2018,10,23,01,00,5.90
2018,10,23,01,01,5.90
2018,10,23,01,02,5.90
2018,10,23,01,03,5.90
2018,10,23,01,04,5.90
2018,10,23,01,05,5.90
2018,10,23,01,06,5.90
2018,10,23,01,07,5.90
2018,10,23,01,08,5.90
2018,10,23,01,09,5.90
2018,10,23,01,10,5.90
2018,10,23,01,11,5.90
2018,10,23,01,12,5.90
2018,10,23,01,13,5.90
2018,10,23,01,14,5.90
2018,10,23,01,15,5.90
2018,10,23,01,16,5.90
2018,10,23,01,17,5.90
2018,10,23,01,18,5.90
2018,10,23,01,19,5.90
2018,10,23,01,20,5.90
2018,10,23,01,21,5.90
2018,10,23,01,22,5.80
2018,10,23,01,23,5.80
2018,10,23,01,24,5.80
2018,10,23,01,25,5.80
2018,10,23,01,26,5.80
2018,10,23,01,27,5.80
2018,10,23,01,28,5.80
2018,10,23,01,29,5.70
2018,10,23,01,30,5.70
2018,10,23,01,31,5.70
2018,10,23,01,32,5.70
2018,10,23,01,33,5.70
2018,10,23,01,34,5.70
2018,10,23,01,35,5.60
2018,10,23,01,36,5.60
2018,10,23,01,37,5.60
2018,10,23,01,38,5.60
2018,10,23,01,39,5.60
2018,10,23,01,40,5.60
2018,10,23,01,41,5.60
2018,10,23,01,42,5.60
2018,10,23,01,43,5.50
2018,10,23,01,44,5.60
2018,10,23,01,45,5.60
2018,10,23,01,46,5.60
2018,10,23,01,47,5.50
2018,10,23,01,48,5.50
2018,10,23,01,49,5.50
2018,10,23,01,50,5.40
2018,10,23,01,51,5.40
2018,10,23,01,52,5.40
2018,10,23,01,53,5.40
2018,10,23,01,54,5.40
2018,10,23,01,55,5.40
2018,10,23,01,56,5.30
2018,10,23,01,57,5.30
2018,10,23,01,58,5.30
2018,10,23,01,59,5.30
2018,10,23,02,00,5.30
2018,10,23,02,01,5.30
2018,10,23,02,02,5.30
2018,10,23,02,03,5.30
2018,10,23,02,04,5.30
2018,10,23,02,05,5.30
2018,10,23,02,06,5.30
2018,10,23,02,07,5.30
2018,10,23,02,08,5.40
2018,10,23,02,09,5.40
2018,10,23,02,10,5.40
2018,10,23,02,11,5.40
2018,10,23,02,12,5.40
2018,10,23,02,13,5.40
2018,10,23,02,14,5.40
2018,10,23,02,15,5.40
2018,10,23,02,16,5.40
2018,10,23,02,17,5.40
2018,10,23,02,18,5.40
2018,10,23,02,19,5.50
2018,10,23,02,20,5.50
2018,10,23,02,21,5.50
2018,10,23,02,22,5.50
2018,10,23,02,23,5.60
2018,10,23,02,24,5.60
2018,10,23,02,25,5.60
2018,10,23,02,26,5.70
2018,10,23,02,27,5.70
2018,10,23,02,28,5.70
2018,10,23,02,29,5.70
2018,10,23,02,30,5.60
2018,10,23,02,31,5.60
2018,10,23,02,32,5.60
2018,10,23,02,33,5.60
2018,10,23,02,34,5.60
2018,10,23,02,35,5.60
2018,10,23,02,36,5.50
2018,10,23,02,37,5.50
2018,10,23,02,38,5.40
2018,10,23,02,39,5.40
2018,10,23,02,40,5.40
2018,10,23,02,41,5.30
2018,10,23,02,42,5.30
2018,10,23,02,43,5.30
2018,10,23,02,44,5.30
2018,10,23,02,45,5.40
2018,10,23,02,46,5.40
2018,10,23,02,47,5.40
2018,10,23,02,48,5.40
2018,10,23,02,49,5.50
2018,10,23,02,50,5.50
2018,10,23,02,51,5.50
2018,10,23,02,52,5.50
2018,10,23,02,53,5.50
2018,10,23,02,54,5.50
2018,10,23,02,55,5.50
2018,10,23,02,56,5.50
2018,10,23,02,57,5.50
2018,10,23,02,58,5.50
2018,10,23,02,59,5.50
2018,10,23,03,00,5.50
2018,10,23,03,01,5.50
2018,10,23,03,02,5.40
2018,10,23,03,03,5.40
2018,10,23,03,04,5.40
2018,10,23,03,05,5.40
2018,10,23,03,06,5.30
2018,10,23,03,07,5.30
2018,10,23,03,08,5.30
2018,10,23,03,09,5.30
2018,10,23,03,10,5.30
2018,10,23,03,11,5.20
2018,10,23,03,12,5.20
2018,10,23,03,13,5.20
2018,10,23,03,14,5.10
2018,10,23,03,15,5.10
2018,10,23,03,16,5.10
2018,10,23,03,17,5.10
2018,10,23,03,18,5.10
2018,10,23,03,19,5.10
2018,10,23,03,20,5.20
2018,10,23,03,21,5.20
2018,10,23,03,22,5.30
2018,10,23,03,23,5.30
2018,10,23,03,24,5.30
2018,10,23,03,25,5.20
2018,10,23,03,26,5.20
2018,10,23,03,27,5.10
2018,10,23,03,28,5.10
2018,10,23,03,29,5.00
2018,10,23,03,30,5.00
2018,10,23,03,31,4.90
2018,10,23,03,32,4.90
2018,10,23,03,33,4.90
2018,10,23,03,34,4.90
2018,10,23,03,35,4.90
2018,10,23,03,36,4.90
2018,10,23,03,37,4.90
2018,10,23,03,38,5.00
2018,10,23,03,39,5.10
2018,10,23,03,40,5.20
2018,10,23,03,41,5.20
2018,10,23,03,42,5.30
2018,10,23,03,43,5.40
2018,10,23,03,44,5.40
2018,10,23,03,45,5.40
2018,10,23,03,46,5.50
2018,10,23,03,47,5.50
2018,10,23,03,48,5.50
2018,10,23,03,49,5.50
2018,10,23,03,50,5.50
2018,10,23,03,51,5.50
2018,10,23,03,52,5.40
2018,10,23,03,53,5.40
2018,10,23,03,54,5.30
2018,10,23,03,55,5.30
2018,10,23,03,56,5.30
2018,10,23,03,57,5.20
2018,10,23,03,58,5.20
2018,10,23,03,59,5.20
2018,10,23,04,00,5.20
2018,10,23,04,01,5.10
2018,10,23,04,02,5.10
2018,10,23,04,03,5.10
2018,10,23,05,04,6.20
2018,10,23,05,05,6.20
2018,10,23,05,06,6.20
2018,10,23,05,07,6.30
2018,10,23,05,08,6.30
2018,10,23,05,09,6.30
2018,10,23,05,10,6.30
2018,10,23,05,11,6.30
2018,10,23,05,12,6.30
2018,10,23,05,13,6.30
2018,10,23,05,14,6.30
2018,10,23,05,15,6.30
2018,10,23,05,16,6.20
2018,10,23,05,17,6.20
2018,10,23,05,18,6.20
2018,10,23,05,19,6.20
2018,10,23,05,20,6.20
2018,10,23,05,21,6.10
2018,10,23,05,22,6.10
2018,10,23,05,23,6.10
2018,10,23,05,24,6.10
2018,10,23,05,25,6.00
2018,10,23,05,26,6.00
2018,10,23,05,27,5.90
2018,10,23,05,28,5.90
2018,10,23,05,29,5.80
2018,10,23,05,30,5.70
2018,10,23,05,31,5.60
2018,10,23,05,32,5.50
2018,10,23,05,33,5.40
2018,10,23,05,34,5.40
2018,10,23,05,35,5.30
2018,10,23,05,36,5.20
2018,10,23,05,37,5.20
2018,10,23,05,38,5.10
2018,10,23,05,39,5.10
2018,10,23,05,40,5.00
2018,10,23,05,41,5.00
2018,10,23,05,42,4.90
2018,10,23,05,43,4.90
2018,10,23,05,44,4.90
2018,10,23,05,45,4.80
2018,10,23,05,46,4.80
2018,10,23,05,47,4.80
2018,10,23,05,48,4.80
2018,10,23,05,49,4.80
2018,10,23,05,50,4.80
2018,10,23,05,51,4.80
2018,10,23,05,52,4.90
2018,10,23,05,53,4.90
2018,10,23,05,54,4.90
2018,10,23,05,55,4.90
2018,10,23,05,56,4.90
2018,10,23,05,57,4.90
2018,10,23,05,58,4.90
2018,10,23,05,59,4.90
2018,10,23,06,00,4.80
2018,10,23,06,01,4.70
2018,10,23,06,02,4.60
2018,10,23,06,03,4.50
2018,10,23,06,04,4.40
2018,10,23,06,05,4.40
2018,10,23,06,06,4.40
2018,10,23,06,07,4.40
2018,10,23,06,08,4.40
2018,10,23,06,09,4.40
2018,10,23,06,10,4.50
2018,10,23,06,11,4.60
2018,10,23,06,12,4.60
2018,10,23,06,13,4.60
2018,10,23,06,14,4.70
2018,10,23,06,15,4.70
2018,10,23,06,16,4.80
2018,10,23,06,17,4.80
2018,10,23,06,18,4.90
2018,10,23,06,19,5.00
2018,10,23,06,20,5.00
2018,10,23,06,21,5.10
2018,10,23,06,22,5.20
2018,10,23,06,23,5.30
2018,10,23,06,24,5.30
2018,10,23,06,25,5.40
2018,10,23,06,26,5.40
2018,10,23,06,27,5.50
2018,10,23,06,28,5.50
2018,10,23,06,29,5.60
2018,10,23,06,30,5.60
2018,10,23,06,31,5.60
2018,10,23,06,32,5.70
2018,10,23,06,33,5.70
2018,10,23,06,34,5.70
2018,10,23,06,35,5.70
2018,10,23,06,36,5.70
2018,10,23,06,37,5.70
2018,10,23,06,38,5.80
2018,10,23,06,39,5.80
2018,10,23,06,40,5.80
2018,10,23,06,41,5.90
2018,10,23,06,42,5.90
2018,10,23,06,43,6.00
2018,10,23,06,44,6.00
2018,10,23,06,45,6.10
2018,10,23,06,46,6.10
2018,10,23,06,47,6.10
2018,10,23,06,48,6.20
2018,10,23,06,49,6.20
2018,10,23,06,50,6.20
2018,10,23,06,51,6.20
2018,10,23,06,52,6.20
2018,10,23,06,53,6.20
2018,10,23,06,54,6.20
2018,10,23,06,55,6.30
2018,10,23,06,56,6.30
2018,10,23,06,57,6.30
2018,10,23,06,58,6.30
2018,10,23,06,59,6.30
2018,10,23,07,00,6.40
2018,10,23,07,01,6.40
2018,10,23,07,02,6.40
2018,10,23,07,03,6.50
2018,10,23,07,04,6.50
2018,10,23,07,05,6.50
2018,10,23,07,06,6.60
2018,10,23,07,07,6.60
2018,10,23,07,08,6.60
2018,10,23,07,09,6.60
2018,10,23,07,10,6.70
2018,10,23,07,11,6.70
2018,10,23,07,12,6.70
2018,10,23,07,13,6.70
2018,10,23,07,14,6.70
2018,10,23,07,15,6.70
2018,10,23,07,16,6.70
2018,10,23,07,17,6.80
2018,10,23,07,18,6.80
2018,10,23,07,19,6.80
2018,10,23,07,20,6.80
2018,10,23,07,21,6.80
2018,10,23,07,22,6.80
2018,10,23,07,23,6.80
2018,10,23,07,24,6.80
2018,10,23,07,25,6.80
2018,10,23,07,26,6.80
2018,10,23,07,27,6.80
2018,10,23,07,28,6.80
2018,10,23,07,29,6.80
2018,10,23,07,30,6.80
2018,10,23,07,31,6.80
2018,10,23,07,32,6.80
2018,10,23,07,33,6.80
2018,10,23,07,34,6.80
2018,10,23,07,35,6.80
2018,10,23,07,36,6.80
2018,10,23,07,37,6.80
2018,10,23,07,38,6.80
2018,10,23,07,39,6.80
2018,10,23,07,40,6.80
2018,10,23,07,41,6.80
2018,10,23,07,42,6.80
2018,10,23,07,43,6.80
2018,10,23,07,44,6.80
2018,10,23,07,45,6.80
2018,10,23,07,46,6.80
2018,10,23,07,47,6.80
2018,10,23,07,48,6.80
2018,10,23,07,49,6.90
2018,10,23,07,50,6.90
2018,10,23,07,51,6.90
2018,10,23,07,52,6.90
2018,10,23,07,53,6.90
2018,10,23,07,54,6.90
2018,10,23,07,55,6.90
2018,10,23,07,56,6.90
2018,10,23,07,57,6.90
2018,10,23,07,58,7.00
2018,10,23,07,59,7.00
2018,10,23,08,00,7.00
2018,10,23,08,01,7.00
2018,10,23,08,02,7.10
2018,10,23,08,03,7.10
2018,10,23,08,04,7.10
2018,10,23,08,05,7.10
2018,10,23,08,06,7.10
2018,10,23,08,07,7.10
2018,10,23,08,08,7.10
2018,10,23,08,09,7.10
2018,10,23,08,10,7.10
2018,10,23,08,11,7.10
2018,10,23,08,12,7.10
2018,10,23,08,13,7.10
2018,10,23,08,14,7.10
2018,10,23,08,15,7.10
2018,10,23,08,16,7.20
2018,10,23,08,17,7.10
2018,10,23,08,18,7.20
2018,10,23,08,19,7.20
2018,10,23,08,20,7.20
2018,10,23,08,21,7.20
2018,10,23,08,22,7.20
2018,10,23,08,23,7.20
2018,10,23,08,24,7.20
2018,10,23,08,25,7.20
2018,10,23,08,26,7.20
2018,10,23,08,27,7.20
2018,10,23,08,28,7.20
2018,10,23,08,29,7.20
2018,10,23,08,30,7.20
2018,10,23,08,31,7.20
2018,10,23,08,32,7.30
2018,10,23,08,33,7.30
2018,10,23,08,34,7.30
2018,10,23,08,35,7.30
2018,10,23,08,36,7.30
2018,10,23,08,37,7.40
2018,10,23,08,38,7.40
2018,10,23,08,39,7.40
2018,10,23,08,40,7.40
2018,10,23,08,41,7.40
2018,10,23,08,42,7.40
2018,10,23,08,43,7.40
2018,10,23,08,44,7.50
2018,10,23,08,45,7.50
2018,10,23,08,46,7.50
2018,10,23,08,47,7.60
2018,10,23,08,48,7.60
2018,10,23,08,49,7.60
2018,10,23,08,50,7.60
2018,10,23,08,51,7.60
2018,10,23,08,52,7.70
2018,10,23,08,53,7.70
2018,10,23,08,54,7.70
2018,10,23,08,55,7.70
2018,10,23,08,56,7.70
2018,10,23,08,57,7.70
2018,10,23,08,58,7.80
2018,10,23,08,59,7.80
2018,10,23,09,00,7.80
2018,10,23,09,01,7.80
2018,10,23,09,02,7.80
2018,10,23,09,03,7.80
2018,10,23,09,04,7.80
2018,10,23,09,05,7.80
2018,10,23,09,06,7.90
2018,10,23,09,07,7.90
2018,10,23,09,08,7.90
2018,10,23,09,09,7.90
2018,10,23,09,10,7.90
2018,10,23,09,11,8.00
2018,10,23,09,12,8.00
2018,10,23,09,13,8.00
2018,10,23,09,14,8.00
2018,10,23,09,15,8.00
2018,10,23,09,16,8.00
2018,10,23,09,17,8.00
2018,10,23,09,18,8.00
2018,10,23,09,19,8.00
2018,10,23,09,20,8.00
2018,10,23,09,21,8.10
2018,10,23,09,22,8.10
2018,10,23,09,23,8.10
2018,10,23,09,24,8.10
2018,10,23,09,25,8.10
2018,10,23,09,26,8.10
2018,10,23,09,27,8.10
2018,10,23,09,28,8.10
2018,10,23,09,29,8.10
2018,10,23,09,30,8.10
2018,10,23,09,31,8.10
2018,10,23,09,32,8.20
2018,10,23,09,33,8.20
2018,10,23,09,34,8.20
2018,10,23,09,35,8.20
2018,10,23,09,36,8.20
2018,10,23,09,37,8.20
2018,10,23,09,38,8.20
2018,10,23,09,39,8.20
2018,10,23,09,40,8.20
2018,10,23,09,41,8.20
2018,10,23,09,42,8.20
2018,10,23,09,43,8.20
2018,10,23,09,44,8.20
2018,10,23,09,45,8.20
2018,10,23,09,46,8.20
2018,10,23,09,47,8.30
2018,10,23,09,48,8.30
2018,10,23,09,49,8.30
2018,10,23,09,50,8.30
2018,10,23,09,51,8.30
2018,10,23,09,52,8.30
2018,10,23,09,53,8.30
2018,10,23,09,54,8.30
2018,10,23,09,55,8.30
2018,10,23,09,56,8.30
2018,10,23,09,57,8.30
2018,10,23,09,58,8.30
2018,10,23,09,59,8.40
2018,10,23,10,00,8.40
2018,10,23,10,01,8.40
2018,10,23,10,02,8.40
2018,10,23,10,03,8.40
2018,10,23,10,04,8.40
2018,10,23,10,05,8.40
2018,10,23,10,06,8.40
2018,10,23,10,07,8.40
2018,10,23,10,08,8.40
2018,10,23,10,09,8.40
2018,10,23,10,10,8.40
2018,10,23,10,11,8.40
2018,10,23,10,12,8.40
2018,10,23,10,13,8.40
2018,10,23,10,14,8.40
2018,10,23,10,15,8.40
2018,10,23,10,16,8.40
2018,10,23,10,17,8.50
2018,10,23,10,18,8.40
2018,10,23,10,19,8.40
2018,10,23,10,20,8.40
2018,10,23,10,21,8.40
2018,10,23,10,22,8.50
2018,10,23,10,23,8.50
2018,10,23,10,24,8.50
2018,10,23,10,25,8.60
2018,10,23,10,26,8.60
2018,10,23,10,27,8.60
2018,10,23,10,28,8.60
2018,10,23,10,29,8.60
2018,10,23,10,30,8.60
2018,10,23,10,31,8.70
2018,10,23,10,32,8.70
2018,10,23,10,33,8.70
2018,10,23,10,34,8.70
2018,10,23,10,35,8.70
2018,10,23,10,36,8.70
2018,10,23,10,37,8.70
2018,10,23,10,38,8.70
2018,10,23,10,39,8.70
2018,10,23,10,40,8.70
2018,10,23,10,41,8.70
2018,10,23,10,42,8.70
2018,10,23,10,43,8.70
2018,10,23,10,44,8.70
2018,10,23,10,45,8.70
2018,10,23,10,46,8.70
2018,10,23,10,47,8.70
2018,10,23,10,48,8.70
2018,10,23,10,49,8.70
2018,10,23,10,50,8.70
2018,10,23,10,51,8.80
2018,10,23,10,52,8.80
2018,10,23,10,53,8.80
2018,10,23,10,54,8.80
2018,10,23,10,55,8.90
2018,10,23,10,56,8.90
2018,10,23,10,57,8.90
2018,10,23,10,58,8.90
2018,10,23,10,59,8.90
2018,10,23,11,00,8.90
2018,10,23,11,01,9.00
2018,10,23,11,02,9.00
2018,10,23,11,03,9.10
2018,10,23,11,04,9.10
2018,10,23,11,05,9.20
2018,10,23,11,06,9.20
2018,10,23,11,07,9.20
2018,10,23,11,08,9.30
2018,10,23,11,09,9.30
2018,10,23,11,10,9.30
2018,10,23,11,11,9.30
2018,10,23,11,12,9.30
2018,10,23,11,13,9.30
2018,10,23,11,14,9.40
2018,10,23,11,15,9.30
2018,10,23,11,16,9.30
2018,10,23,11,17,9.30
2018,10,23,11,18,9.30
2018,10,23,11,19,9.30
2018,10,23,11,20,9.30
2018,10,23,11,21,9.30
2018,10,23,11,22,9.30
2018,10,23,11,23,9.30
2018,10,23,11,24,9.30
2018,10,23,11,25,9.30
2018,10,23,11,26,9.30
2018,10,23,11,27,9.30
2018,10,23,11,28,9.40
2018,10,23,11,29,9.40
2018,10,23,11,30,9.40
2018,10,23,11,31,9.50
2018,10,23,11,32,9.50
2018,10,23,11,33,9.50
2018,10,23,11,34,9.60
2018,10,23,11,35,9.60
2018,10,23,11,36,9.60
2018,10,23,11,37,9.60
2018,10,23,11,38,9.70
2018,10,23,11,39,9.70
2018,10,23,11,40,9.70
2018,10,23,11,41,9.70
2018,10,23,11,42,9.70
2018,10,23,11,43,9.80
2018,10,23,11,44,9.80
2018,10,23,11,45,9.80
2018,10,23,11,46,9.90
2018,10,23,11,47,9.90
2018,10,23,11,48,9.90
2018,10,23,11,49,9.80
2018,10,23,11,50,9.80
2018,10,23,11,51,9.80
2018,10,23,11,52,9.80
2018,10,23,11,53,9.80
2018,10,23,11,54,9.80
2018,10,23,11,55,9.70
2018,10,23,11,56,9.70
2018,10,23,11,57,9.70
2018,10,23,11,58,9.70
2018,10,23,11,59,9.70
2018,10,23,12,00,9.70
2018,10,23,12,01,9.70
2018,10,23,12,02,9.70
2018,10,23,12,03,9.70
2018,10,23,12,04,9.70
2018,10,23,12,05,9.80
2018,10,23,12,06,9.80
2018,10,23,12,07,9.80
2018,10,23,12,08,9.80
2018,10,23,12,09,9.80
2018,10,23,12,10,9.80
2018,10,23,12,11,9.80
2018,10,23,12,12,9.80
2018,10,23,12,13,9.90
2018,10,23,12,14,9.90
2018,10,23,12,15,9.90
2018,10,23,12,16,9.90
2018,10,23,12,17,9.90
2018,10,23,12,18,9.90
2018,10,23,12,19,9.90
2018,10,23,12,20,10.00
2018,10,23,12,21,10.00
2018,10,23,12,22,10.00
2018,10,23,12,23,10.00
2018,10,23,12,24,10.10
2018,10,23,12,25,10.10
2018,10,23,12,26,10.10
2018,10,23,12,27,10.10
2018,10,23,12,28,10.10
2018,10,23,12,29,10.10
2018,10,23,12,30,10.10
2018,10,23,12,31,10.10
2018,10,23,12,32,10.10
2018,10,23,12,33,10.10
2018,10,23,12,34,10.10
2018,10,23,12,35,10.10
2018,10,23,12,36,10.10
2018,10,23,12,37,10.10
2018,10,23,12,38,10.10
2018,10,23,12,39,10.10
2018,10,23,12,40,10.10
2018,10,23,12,41,10.10
2018,10,23,12,42,10.10
2018,10,23,12,43,10.10
2018,10,23,12,44,10.10
2018,10,23,12,45,10.10
2018,10,23,12,46,10.10
2018,10,23,12,47,10.10
2018,10,23,12,48,10.10
2018,10,23,12,49,10.00
2018,10,23,12,50,10.00
2018,10,23,12,51,10.00
2018,10,23,12,52,10.00
2018,10,23,12,53,10.00
2018,10,23,12,54,10.00
2018,10,23,12,55,10.00
2018,10,23,12,56,9.90
2018,10,23,12,57,9.90
2018,10,23,12,58,9.90
2018,10,23,12,59,9.90
2018,10,23,13,00,9.90
2018,10,23,13,01,9.90
2018,10,23,13,02,9.90
2018,10,23,13,03,9.90
2018,10,23,13,04,9.90
2018,10,23,13,05,9.90
2018,10,23,13,06,9.90
2018,10,23,13,07,9.90
2018,10,23,13,08,9.90
2018,10,23,13,09,9.90
2018,10,23,13,10,9.90
2018,10,23,13,11,10.00
2018,10,23,13,12,10.00
2018,10,23,13,13,10.00
2018,10,23,13,14,10.10
2018,10,23,13,15,10.10
2018,10,23,13,16,10.10
2018,10,23,13,17,10.20
2018,10,23,13,18,10.20
2018,10,23,13,19,10.20
2018,10,23,13,20,10.20
2018,10,23,13,21,10.20
2018,10,23,13,22,10.30
2018,10,23,13,23,10.30
2018,10,23,13,24,10.30
2018,10,23,13,25,10.30
2018,10,23,13,26,10.40
2018,10,23,13,27,10.40
2018,10,23,13,28,10.40
2018,10,23,13,29,10.40
2018,10,23,13,30,10.40
2018,10,23,13,31,10.50
2018,10,23,13,32,10.50
2018,10,23,13,33,10.50
2018,10,23,13,34,10.50
2018,10,23,13,35,10.50
2018,10,23,13,36,10.50
2018,10,23,13,37,10.50
2018,10,23,13,38,10.50
2018,10,23,13,39,10.50
2018,10,23,13,40,10.50
2018,10,23,13,41,10.40
2018,10,23,13,42,10.40
2018,10,23,13,43,10.40
2018,10,23,13,44,10.40
2018,10,23,13,45,10.40
2018,10,23,13,46,10.40
2018,10,23,13,47,10.40
2018,10,23,13,48,10.40
2018,10,23,13,49,10.40
2018,10,23,13,50,10.40
2018,10,23,13,51,10.40
2018,10,23,13,52,10.30
2018,10,23,13,53,10.30
2018,10,23,13,54,10.40
2018,10,23,13,55,10.40
2018,10,23,13,56,10.30
2018,10,23,13,57,10.30
2018,10,23,13,58,10.30
2018,10,23,13,59,10.30
2018,10,23,14,00,10.30
2018,10,23,14,01,10.30
2018,10,23,14,02,10.30
2018,10,23,14,03,10.30
2018,10,23,14,04,10.30
2018,10,23,14,05,10.30
2018,10,23,14,06,10.30
2018,10,23,14,07,10.30
2018,10,23,14,08,10.20
2018,10,23,14,09,10.20
2018,10,23,14,10,10.20
2018,10,23,14,11,10.20
2018,10,23,14,12,10.20
2018,10,23,14,13,10.20
2018,10,23,14,14,10.30
2018,10,23,14,15,10.30
2018,10,23,14,16,10.30
2018,10,23,14,17,10.30
2018,10,23,14,18,10.20
2018,10,23,14,19,10.20
2018,10,23,14,20,10.20
2018,10,23,14,21,10.20
2018,10,23,14,22,10.20
2018,10,23,14,23,10.20
2018,10,23,14,24,10.20
2018,10,23,14,25,10.20
2018,10,23,14,26,10.20
2018,10,23,14,27,10.20
2018,10,23,14,28,10.20
2018,10,23,14,29,10.20
2018,10,23,14,30,10.20
2018,10,23,14,31,10.20
2018,10,23,14,32,10.10
2018,10,23,14,33,10.10
2018,10,23,14,34,10.10
2018,10,23,14,35,10.10
2018,10,23,14,36,10.10
2018,10,23,14,37,10.10
2018,10,23,14,38,10.10
2018,10,23,14,39,10.10
2018,10,23,14,40,10.10
2018,10,23,14,41,10.10
2018,10,23,14,42,10.10
2018,10,23,14,43,10.10
2018,10,23,14,44,10.00
2018,10,23,14,45,10.00
2018,10,23,14,46,10.00
2018,10,23,14,47,10.00
2018,10,23,14,48,9.90
2018,10,23,14,49,9.90
2018,10,23,14,50,9.90
2018,10,23,14,51,9.90
2018,10,23,14,52,9.90
2018,10,23,14,53,9.90
2018,10,23,14,54,9.90
2018,10,23,14,55,9.90
2018,10,23,14,56,9.90
2018,10,23,14,57,9.90
2018,10,23,14,58,10.00
2018,10,23,14,59,9.90
2018,10,23,15,00,10.00
2018,10,23,15,01,9.90
2018,10,23,15,02,10.00
2018,10,23,15,03,10.00
2018,10,23,15,04,9.90
2018,10,23,15,05,9.90
2018,10,23,15,06,9.90
2018,10,23,15,07,10.00
2018,10,23,15,08,10.00
2018,10,23,15,09,10.00
2018,10,23,15,10,10.00
2018,10,23,15,11,10.00
2018,10,23,15,12,10.00
2018,10,23,15,13,10.00
2018,10,23,15,14,10.10
2018,10,23,15,15,10.10
2018,10,23,15,16,10.10
2018,10,23,15,17,10.10
2018,10,23,15,18,10.10
2018,10,23,15,19,10.10
2018,10,23,15,20,10.10
2018,10,23,15,21,10.10
2018,10,23,15,22,10.10
2018,10,23,15,23,10.10
2018,10,23,15,24,10.10
2018,10,23,15,25,10.10
2018,10,23,15,26,10.20
2018,10,23,15,27,10.20
2018,10,23,15,28,10.20
2018,10,23,15,29,10.20
2018,10,23,15,30,10.20
2018,10,23,15,31,10.20
2018,10,23,15,32,10.20
2018,10,23,15,33,10.20
2018,10,23,15,34,10.20
2018,10,23,15,35,10.20
2018,10,23,15,36,10.20
2018,10,23,15,37,10.20
2018,10,23,15,38,10.30
2018,10,23,15,39,10.30
2018,10,23,15,40,10.30
2018,10,23,15,41,10.30
2018,10,23,15,42,10.30
2018,10,23,15,43,10.30
2018,10,23,15,44,10.30
2018,10,23,15,45,10.30
2018,10,23,15,46,10.30
2018,10,23,15,47,10.30
2018,10,23,15,48,10.40
2018,10,23,15,49,10.40
2018,10,23,15,50,10.40
2018,10,23,15,51,10.40
2018,10,23,15,52,10.40
2018,10,23,15,53,10.40
2018,10,23,15,54,10.40
2018,10,23,15,55,10.50
2018,10,23,15,56,10.50
2018,10,23,15,57,10.50
2018,10,23,15,58,10.50
2018,10,23,15,59,10.50
2018,10,23,16,00,10.50
2018,10,23,16,01,10.60
2018,10,23,16,02,10.60
2018,10,23,16,03,10.60
2018,10,23,16,04,10.60
2018,10,23,16,05,10.60
2018,10,23,16,06,10.60
2018,10,23,16,07,10.60
2018,10,23,16,08,10.60
2018,10,23,16,09,10.60
2018,10,23,16,10,10.70
2018,10,23,16,11,10.70
2018,10,23,16,12,10.70
2018,10,23,16,13,10.70
2018,10,23,16,14,10.70
2018,10,23,16,15,10.70
2018,10,23,16,16,10.70
2018,10,23,16,17,10.70
2018,10,23,16,18,10.70
2018,10,23,16,19,10.70
2018,10,23,16,20,10.70
2018,10,23,16,21,10.70
2018,10,23,16,22,10.70
2018,10,23,16,23,10.80
2018,10,23,16,24,10.80
2018,10,23,16,25,10.80
2018,10,23,16,26,10.80
2018,10,23,16,27,10.80
2018,10,23,16,28,10.80
2018,10,23,16,29,10.80
2018,10,23,16,30,10.80
2018,10,23,16,31,10.80
2018,10,23,16,32,10.80
2018,10,23,16,33,10.80
2018,10,23,16,34,10.80
2018,10,23,16,35,10.80
2018,10,23,16,36,10.80
2018,10,23,16,37,10.80
2018,10,23,16,38,10.80
2018,10,23,16,39,10.80
2018,10,23,16,40,10.80
2018,10,23,16,41,10.80
2018,10,23,16,42,10.80
2018,10,23,16,43,10.80
2018,10,23,16,44,10.80
2018,10,23,16,45,10.80
2018,10,23,16,46,10.70
2018,10,23,16,47,10.70
2018,10,23,16,48,10.70
2018,10,23,16,49,10.70
2018,10,23,16,50,10.70
2018,10,23,16,51,10.70
2018,10,23,16,52,10.70
2018,10,23,16,53,10.70
2018,10,23,16,54,10.70
2018,10,23,16,55,10.70
2018,10,23,16,56,10.70
2018,10,23,16,57,10.70
2018,10,23,16,58,10.70
2018,10,23,16,59,10.70
2018,10,23,17,00,10.70
2018,10,23,17,01,10.70
2018,10,23,17,02,10.70
2018,10,23,17,03,10.70
2018,10,23,17,04,10.60
2018,10,23,17,05,10.60
2018,10,23,17,06,10.60
2018,10,23,17,07,10.60
2018,10,23,17,08,10.60
2018,10,23,17,09,10.60
2018,10,23,17,10,10.60
2018,10,23,17,11,10.60
2018,10,23,17,12,10.60
2018,10,23,17,13,10.60
2018,10,23,17,14,10.60
2018,10,23,17,15,10.60
2018,10,23,17,16,10.60
2018,10,23,17,17,10.60
2018,10,23,17,18,10.60
2018,10,23,17,19,10.60
2018,10,23,17,20,10.60
2018,10,23,17,21,10.60
2018,10,23,17,22,10.60
2018,10,23,17,23,10.60
2018,10,23,17,24,10.50
2018,10,23,17,25,10.50
2018,10,23,17,26,10.50
2018,10,23,17,27,10.50
2018,10,23,17,28,10.50
2018,10,23,17,29,10.50
2018,10,23,17,30,10.50
2018,10,23,17,31,10.50
2018,10,23,17,32,10.50
2018,10,23,17,33,10.50
2018,10,23,17,34,10.50
2018,10,23,17,35,10.50
2018,10,23,17,36,10.50
2018,10,23,17,37,10.50
2018,10,23,17,38,10.50
2018,10,23,17,39,10.50
2018,10,23,17,40,10.50
2018,10,23,17,41,10.50
2018,10,23,17,42,10.50
2018,10,23,17,43,10.50
2018,10,23,17,44,10.50
2018,10,23,17,45,10.50
2018,10,23,17,46,10.50
2018,10,23,17,47,10.50
2018,10,23,17,48,10.50
2018,10,23,17,49,10.50
2018,10,23,17,50,10.50
2018,10,23,17,51,10.50
2018,10,23,17,52,10.50
2018,10,23,17,53,10.50
2018,10,23,17,54,10.50
2018,10,23,17,55,10.40
2018,10,23,17,56,10.40
2018,10,23,17,57,10.40
2018,10,23,17,58,10.40
2018,10,23,17,59,10.40
2018,10,23,18,00,10.40
2018,10,23,18,01,10.40
2018,10,23,18,02,10.40
2018,10,23,18,03,10.40
2018,10,23,18,04,10.40
2018,10,23,18,05,10.40
2018,10,23,18,06,10.40
2018,10,23,18,07,10.40
2018,10,23,18,08,10.40
2018,10,23,18,09,10.40
2018,10,23,18,10,10.40
2018,10,23,18,11,10.40
2018,10,23,18,12,10.40
2018,10,23,18,13,10.40
2018,10,23,18,14,10.40
2018,10,23,18,15,10.40
2018,10,23,18,16,10.40
2018,10,23,18,17,10.40
2018,10,23,18,18,10.40
2018,10,23,18,19,10.40
2018,10,23,18,20,10.40
2018,10,23,18,21,10.40
2018,10,23,18,22,10.40
2018,10,23,18,23,10.40
2018,10,23,18,24,10.40
2018,10,23,18,25,10.40
2018,10,23,18,26,10.40
2018,10,23,18,27,10.40
2018,10,23,18,28,10.40
2018,10,23,18,29,10.30
2018,10,23,18,30,10.30
2018,10,23,18,31,10.30
2018,10,23,18,32,10.30
2018,10,23,18,33,10.40
2018,10,23,18,34,10.40
2018,10,23,18,35,10.40
2018,10,23,18,36,10.40
2018,10,23,18,37,10.40
2018,10,23,18,38,10.40
2018,10,23,18,39,10.40
2018,10,23,18,40,10.40
2018,10,23,18,41,10.40
2018,10,23,18,42,10.40
2018,10,23,18,43,10.40
2018,10,23,18,44,10.40
2018,10,23,18,45,10.30
2018,10,23,18,46,10.30
2018,10,23,18,47,10.30
2018,10,23,18,48,10.30
2018,10,23,18,49,10.30
2018,10,23,18,50,10.30